Regional Weather Roundup
Issued by NWS Newport/Morehead, NC

Current Version | Previous Version | Text Only | Print | Product List | Glossary On
Versions: 1 2 3 4 5 6 7 8 9 10 11 12 13 14 15 16 17 18 19 20 21 22 23 24 25 26 27 28 29 30 31 32 33 34 35 36 37 38 39 40 41 42 43 44 45 46 47 48 49 50
798 ASUS42 KMHX 292325 RWRMHX WEATHER ROUNDUP FOR EASTERN NORTH CAROLINA NATIONAL WEATHER SERVICE NEWPORT/MOREHEAD CITY NC 700 PM EDT FRI APR 29 2016 NOTE: "FAIR" INDICATES FEW OR NO CLOUDS BELOW 12,000 FEET WITH NO SIGNIFICANT WEATHER AND/OR OBSTRUCTIONS TO VISIBILITY NCZ015>017-031-032-045>047-102-103-300000- NORTH COAST CITY SKY/WX TMP DP RH WIND PRES REMARKS EDENTON CLOUDY 64 60 85 NE3 30.00R ELIZABETH CITY CLOUDY 60 56 86 N9 29.99R KITTY HAWK CLOUDY 56 54 93 N7 29.99R MANTEO NOT AVBL $$ NCZ045>047-081-094-103-104-300000- CENTRAL COAST CITY SKY/WX TMP DP RH WIND PRES REMARKS FRISCO MOCLDY 65 60 84 N9G18 29.96R SWANQUARTER NOT AVBL $$ NCZ095-097-098-100-101-300000- SOUTHERN COAST CITY SKY/WX TMP DP RH WIND PRES REMARKS BEAUFORT PTCLDY 68 59 73 N8 29.95F CEDAR ISLAND NOT AVBL JACKSONVILLE PTCLDY 73 58 59 N7 29.96R PINEY ISLAND NOT AVBL WILMINGTON SUNNY 71 62 73 E8 29.95S $$ NCZ011>013-027>030-043-044-078>080-089-090>093-098-300000- COASTAL PLAIN CITY SKY/WX TMP DP RH WIND PRES REMARKS AHOSKIE CLOUDY 63 57 80 CALM 29.99R CLINTON SUNNY 73 61 66 E5 29.96R ELIZABETHTOWN SUNNY 77 59 53 CALM 29.94R GOLDSBORO SUNNY 70 63 78 E8 29.95S GREENVILLE CLEAR 64 59 82 N5 30.00R HAVELOCK MOCLDY 69 59 70 N8 29.98R KENANSVILLE SUNNY 70 58 66 CALM 29.98R KINSTON SUNNY 68 57 68 CALM 29.99R NEW BERN PTCLDY 67 57 70 N3 29.98S RICHLANDS CLEAR 71 59 65 N6 29.97R ROCKY MOUNT SUNNY 67 58 72 E5 29.97S WASHINGTON CLOUDY 66 58 77 N5 29.99R WHITEVILLE SUNNY 80 66 62 S8 29.93R $$ AMZ130-135-150-152-154-156-158-170-250-252-270-ANZ085-086-088-633-658-670-300000- MARINE OBSERVATIONS STATION/POSITION TIME TEMP WIND PRES WAVE SWELL AIR SEA DIR/SP/G HT/PER HT/PER (UTC) (F) (DEG/KT/KT) (MB) (FT/S) (FT/S) CHESAPEAKE LIGHT 2300 54 40/ 15/ 16 1016.4 64 E VA BEACH 2250 54 54 360/ 17/ 19 1014.2 5/ 8 3/ 8 DUCK 2300 55 67 1015.1 2 E DUCK 2211 58 N/A 4/ 6 OREGON INLET 2300 56 63 1015.2 13E OREGON INLT 2300 59 N/A 5/ 5 2/ 7 HATTERAS CG 2300 65 71 1014.2 DIAMOND BUOY 2250 62 74 20/ 17/ 21 1014.2 4/ 5 2/10 CAPE LOOKOUT 2300 69 340/ 10/ 13 1013.9 BEAUFORT LAB 2300 68 69 1013.5 30 SE NEW RVR IN 2225 68 N/A 2/ 6 27 SE WRIGHTSVLE 2308 69 69 50/ 4/ 8 1014.6 5 SE WRIGHTSVLE 2308 69 68 120/ 8/ 12 1014.7 225 S CAPE HAT 2250 72 71 240/ 10/ 12 1013.5 3/ 6 2/ 6 41 SE CHARLESTON 2250 72 72 90/ 10/ 10 1013.5 2/ 8 2/ 8 $$

USA.gov is the U.S. government's official web portal to all federal, state and local government web resources and services.